Terug naar catalogus

GLOBALSTAR M069

ActiefCommunicatieLEO
NORAD 31573·PAYLOAD·🇺🇸 United States

Gelanceerd May 29, 2007 vanaf Baikonur Cosmodrome

Loading…

Volgende Passages (komende 24 uur)

TLE

VersSource: Space-Track

Epoch: Sep 14, 2026, 16:02 UTC

1 31573U 07020C   26257.66819229 -.00000064  00000-0  26244-3 0  9995
2 31573  52.0065 358.8582 0001382 346.6975 160.2772 12.23474725889751

Volg GLOBALSTAR M069 in realtime met AllMySat

Download on the App Store